Time,TemperatureF,DewpointF,PressureIn,WindDirection,WindDirectionDegrees,WindSpeedMPH,WindSpeedGustMPH,Humidity,HourlyPrecipIn,Conditions,Clouds,dailyrainin,SolarRadiationWatts/m^2,SoftwareType,DateUTC
2013-04-27 00:02:00,71.0,66.0,-100.00,South,172,5.0,11.0,83,0.00,,,-99.99,0.000000,,2013-04-27 05:02:00,
2013-04-27 00:22:00,70.0,66.0,-100.00,SSE,167,5.0,11.0,86,0.00,,,0.00,0.000000,,2013-04-27 05:22:00,
2013-04-27 00:32:00,70.0,66.0,-100.00,SSE,167,5.0,11.0,86,0.00,,,0.00,0.000000,,2013-04-27 05:32:00,
2013-04-27 00:42:00,70.0,66.0,-100.00,SSE,167,5.0,11.0,86,0.00,,,0.00,0.000000,,2013-04-27 05:42:00,
2013-04-27 00:52:00,70.0,66.0,-100.00,SSE,167,5.0,11.0,86,0.00,,,0.00,0.000000,,2013-04-27 05:52:00,
2013-04-27 01:02:00,70.0,66.0,-100.00,SSE,167,5.0,11.0,86,0.00,,,0.00,0.000000,,2013-04-27 06:02:00,
2013-04-27 01:22:00,69.0,65.0,-100.00,South,173,6.0,13.0,86,0.00,,,-99.99,0.000000,,2013-04-27 06:22:00,
2013-04-27 01:32:00,69.0,65.0,-100.00,South,173,6.0,13.0,86,0.00,,,-99.99,0.000000,,2013-04-27 06:32:00,
2013-04-27 01:42:00,69.0,65.0,-100.00,South,173,6.0,13.0,86,0.00,,,-99.99,0.000000,,2013-04-27 06:42:00,
2013-04-27 01:52:00,69.0,65.0,-100.00,South,173,6.0,13.0,86,0.00,,,-99.99,0.000000,,2013-04-27 06:52:00,
2013-04-27 02:01:00,69.0,65.0,-100.00,South,173,6.0,13.0,86,0.00,,,-99.99,0.000000,,2013-04-27 07:01:00,
2013-04-27 02:22:00,68.0,64.0,-100.00,South,170,5.0,13.0,88,0.00,,,0.00,0.000000,,2013-04-27 07:22:00,
2013-04-27 02:32:00,68.0,64.0,-100.00,South,170,5.0,13.0,88,0.00,,,0.00,0.000000,,2013-04-27 07:32:00,
2013-04-27 02:42:00,68.0,64.0,-100.00,South,170,5.0,13.0,88,0.00,,,0.00,0.000000,,2013-04-27 07:42:00,
2013-04-27 02:52:00,68.0,64.0,-100.00,South,170,5.0,13.0,88,0.00,,,0.00,0.000000,,2013-04-27 07:52:00,
2013-04-27 03:01:00,68.0,64.0,-100.00,South,170,5.0,13.0,88,0.00,,,0.00,0.000000,,2013-04-27 08:01:00,
2013-04-27 03:22:00,67.0,65.0,-100.00,South,174,3.0,7.0,93,0.00,,,0.00,0.000000,,2013-04-27 08:22:00,
2013-04-27 03:33:00,67.0,65.0,-100.00,South,174,3.0,7.0,93,0.00,,,0.00,0.000000,,2013-04-27 08:33:00,
2013-04-27 03:42:00,67.0,65.0,-100.00,South,174,3.0,7.0,93,0.00,,,0.00,0.000000,,2013-04-27 08:42:00,
2013-04-27 03:52:00,67.0,65.0,-100.00,South,174,3.0,7.0,93,0.00,,,0.00,0.000000,,2013-04-27 08:52:00,
2013-04-27 04:01:00,67.0,65.0,-100.00,South,174,3.0,7.0,93,0.00,,,0.00,0.000000,,2013-04-27 09:01:00,
2013-04-27 04:33:00,66.0,65.0,-100.00,SSE,153,4.0,10.0,95,0.00,,,-99.99,0.000000,,2013-04-27 09:33:00,
2013-04-27 04:43:00,66.0,65.0,-100.00,SSE,153,4.0,10.0,95,0.00,,,-99.99,0.000000,,2013-04-27 09:43:00,
2013-04-27 04:53:00,66.0,65.0,-100.00,SSE,153,4.0,10.0,95,0.00,,,-99.99,0.000000,,2013-04-27 09:53:00,
2013-04-27 05:02:00,66.0,65.0,-100.00,SSE,153,4.0,10.0,95,0.00,,,-99.99,0.000000,,2013-04-27 10:02:00,
2013-04-27 05:33:00,67.0,66.0,-100.00,SE,141,3.0,7.0,95,0.00,,,0.00,0.000000,,2013-04-27 10:33:00,
2013-04-27 05:42:00,67.0,66.0,-100.00,SE,141,3.0,7.0,95,0.00,,,0.00,0.000000,,2013-04-27 10:42:00,
2013-04-27 05:52:00,67.0,66.0,-100.00,SE,141,3.0,7.0,95,0.00,,,0.00,0.000000,,2013-04-27 10:52:00,
2013-04-27 06:02:00,67.0,66.0,-100.00,SE,141,3.0,7.0,95,0.00,,,0.00,0.000000,,2013-04-27 11:02:00,
2013-04-27 06:32:00,67.0,66.0,-100.00,South,171,2.0,6.0,95,0.00,,,0.00,0.000000,,2013-04-27 11:32:00,
2013-04-27 06:42:00,67.0,66.0,-100.00,South,171,2.0,6.0,95,0.00,,,0.00,0.000000,,2013-04-27 11:42:00,
2013-04-27 06:52:00,67.0,66.0,-100.00,South,171,2.0,6.0,95,0.00,,,0.00,0.000000,,2013-04-27 11:52:00,
2013-04-27 07:01:00,67.0,66.0,-100.00,South,171,2.0,6.0,95,0.00,,,0.00,0.000000,,2013-04-27 12:01:00,
2013-04-27 07:32:00,67.0,66.0,-100.00,NW,306,1.0,3.0,95,0.00,,,0.00,1.000000,,2013-04-27 12:32:00,
2013-04-27 07:42:00,67.0,66.0,-100.00,NW,306,1.0,3.0,95,0.00,,,0.00,1.000000,,2013-04-27 12:42:00,
2013-04-27 07:52:00,67.0,66.0,-100.00,NW,306,1.0,3.0,95,0.00,,,0.00,1.000000,,2013-04-27 12:52:00,
2013-04-27 08:02:00,67.0,66.0,-100.00,NW,306,1.0,3.0,95,0.00,,,0.00,1.000000,,2013-04-27 13:02:00,
2013-04-27 08:32:00,68.0,66.0,-100.00,SE,139,2.0,3.0,94,0.00,,,0.00,33.000000,,2013-04-27 13:32:00,
2013-04-27 08:42:00,68.0,66.0,-100.00,SE,139,2.0,3.0,94,0.00,,,0.00,33.000000,,2013-04-27 13:42:00,
2013-04-27 08:52:00,68.0,66.0,-100.00,SE,139,2.0,3.0,94,0.00,,,0.00,33.000000,,2013-04-27 13:52:00,
2013-04-27 09:02:00,68.0,66.0,-100.00,SE,139,2.0,3.0,94,0.00,,,0.00,33.000000,,2013-04-27 14:02:00,
2013-04-27 09:32:00,69.0,66.0,-100.00,SSE,165,2.0,4.0,90,0.00,,,0.00,64.000000,,2013-04-27 14:32:00,
2013-04-27 09:42:00,69.0,66.0,-100.00,SSE,165,2.0,4.0,90,0.00,,,0.00,64.000000,,2013-04-27 14:42:00,
2013-04-27 09:52:00,69.0,66.0,-100.00,SSE,165,2.0,4.0,90,0.00,,,0.00,64.000000,,2013-04-27 14:52:00,
2013-04-27 10:01:00,69.0,66.0,-100.00,SSE,165,2.0,4.0,90,0.00,,,0.00,64.000000,,2013-04-27 15:01:00,
2013-04-27 10:03:00,72.0,68.0,-100.00,South,177,4.0,7.0,87,0.00,,,0.00,168.000000,,2013-04-27 15:03:00,
2013-04-27 10:33:00,72.0,68.0,-100.00,South,177,4.0,7.0,87,0.00,,,0.00,168.000000,,2013-04-27 15:33:00,
2013-04-27 10:43:00,72.0,68.0,-100.00,South,177,4.0,7.0,87,0.00,,,0.00,168.000000,,2013-04-27 15:43:00,
2013-04-27 10:53:00,72.0,68.0,-100.00,South,177,4.0,7.0,87,0.00,,,0.00,168.000000,,2013-04-27 15:53:00,
2013-04-27 11:23:00,72.0,69.0,-100.00,South,177,3.0,6.0,91,0.00,,,0.00,151.000000,,2013-04-27 16:23:00,
2013-04-27 11:33:00,72.0,69.0,-100.00,South,177,3.0,6.0,91,0.00,,,0.00,151.000000,,2013-04-27 16:33:00,
2013-04-27 11:42:00,72.0,69.0,-100.00,South,177,3.0,6.0,91,0.00,,,0.00,151.000000,,2013-04-27 16:42:00,
2013-04-27 11:53:00,72.0,69.0,-100.00,South,177,3.0,6.0,91,0.00,,,0.00,151.000000,,2013-04-27 16:53:00,
2013-04-27 12:02:00,72.0,69.0,-100.00,South,177,3.0,6.0,91,0.00,,,0.00,151.000000,,2013-04-27 17:02:00,
2013-04-27 12:32:00,78.0,69.0,-100.00,SSW,207,5.0,11.0,75,0.00,,,0.00,656.000000,,2013-04-27 17:32:00,
2013-04-27 12:42:00,78.0,69.0,-100.00,SSW,207,5.0,11.0,75,0.00,,,0.00,656.000000,,2013-04-27 17:42:00,
2013-04-27 12:53:00,78.0,69.0,-100.00,SSW,207,5.0,11.0,75,0.00,,,0.00,656.000000,,2013-04-27 17:53:00,
2013-04-27 13:02:00,78.0,69.0,-100.00,SSW,207,5.0,11.0,75,0.00,,,0.00,656.000000,,2013-04-27 18:02:00,
2013-04-27 14:22:00,83.0,69.0,-100.00,SW,217,4.0,10.0,63,-99.99,,,0.00,550.000000,,2013-04-27 19:22:00,
2013-04-27 14:32:00,83.0,69.0,-100.00,SW,217,4.0,10.0,63,-99.99,,,0.00,550.000000,,2013-04-27 19:32:00,
2013-04-27 14:42:00,83.0,69.0,-100.00,SW,217,4.0,10.0,63,-99.99,,,0.00,550.000000,,2013-04-27 19:42:00,
2013-04-27 14:53:00,83.0,69.0,-100.00,SW,217,4.0,10.0,63,-99.99,,,0.00,550.000000,,2013-04-27 19:53:00,
2013-04-27 15:02:00,83.0,69.0,-100.00,SW,217,4.0,10.0,63,-99.99,,,0.00,550.000000,,2013-04-27 20:02:00,
2013-04-27 15:32:00,83.0,67.0,-100.00,WNW,296,4.0,9.0,59,0.00,,,0.00,643.000000,,2013-04-27 20:32:00,
2013-04-27 15:42:00,83.0,67.0,-100.00,WNW,296,4.0,9.0,59,0.00,,,0.00,643.000000,,2013-04-27 20:42:00,
2013-04-27 15:52:00,83.0,67.0,-100.00,WNW,296,4.0,9.0,59,0.00,,,0.00,643.000000,,2013-04-27 20:52:00,
2013-04-27 16:02:00,83.0,67.0,-100.00,WNW,296,4.0,9.0,59,0.00,,,0.00,643.000000,,2013-04-27 21:02:00,
2013-04-27 16:22:00,84.0,67.0,-100.00,SSE,160,5.0,10.0,56,0.00,,,0.00,500.000000,,2013-04-27 21:22:00,
2013-04-27 16:33:00,84.0,67.0,-100.00,SSE,160,5.0,10.0,56,0.00,,,0.00,500.000000,,2013-04-27 21:33:00,
2013-04-27 16:43:00,84.0,67.0,-100.00,SSE,160,5.0,10.0,56,0.00,,,0.00,500.000000,,2013-04-27 21:43:00,
2013-04-27 16:53:00,84.0,67.0,-100.00,SSE,160,5.0,10.0,56,0.00,,,0.00,500.000000,,2013-04-27 21:53:00,
2013-04-27 17:02:00,84.0,67.0,-100.00,SSE,160,5.0,10.0,56,0.00,,,0.00,500.000000,,2013-04-27 22:02:00,
2013-04-27 17:32:00,86.0,65.0,-100.00,SW,232,5.0,9.0,50,0.00,,,0.00,633.000000,,2013-04-27 22:32:00,
2013-04-27 17:42:00,86.0,65.0,-100.00,SW,232,5.0,9.0,50,0.00,,,0.00,633.000000,,2013-04-27 22:42:00,
2013-04-27 17:52:00,86.0,65.0,-100.00,SW,232,5.0,9.0,50,0.00,,,0.00,633.000000,,2013-04-27 22:52:00,
2013-04-27 18:02:00,86.0,65.0,-100.00,SW,232,5.0,9.0,50,0.00,,,0.00,633.000000,,2013-04-27 23:02:00,
2013-04-27 18:22:00,82.0,63.0,-100.00,SE,142,3.0,9.0,53,0.00,,,0.00,289.000000,,2013-04-27 23:22:00,
2013-04-27 18:32:00,82.0,63.0,-100.00,SE,142,3.0,9.0,53,0.00,,,0.00,289.000000,,2013-04-27 23:32:00,
2013-04-27 18:42:00,82.0,63.0,-100.00,SE,142,3.0,9.0,53,0.00,,,0.00,289.000000,,2013-04-27 23:42:00,
2013-04-27 18:52:00,82.0,63.0,-100.00,SE,142,3.0,9.0,53,0.00,,,0.00,289.000000,,2013-04-27 23:52:00,
2013-04-27 19:01:00,82.0,63.0,-100.00,SE,142,3.0,9.0,53,0.00,,,0.00,289.000000,,2013-04-28 00:01:00,
2013-04-27 19:22:00,79.0,66.0,-100.00,SSE,167,7.0,14.0,64,0.00,,,0.00,87.000000,,2013-04-28 00:22:00,
2013-04-27 19:32:00,79.0,66.0,-100.00,SSE,167,7.0,14.0,64,0.00,,,0.00,87.000000,,2013-04-28 00:32:00,
2013-04-27 19:43:00,79.0,66.0,-100.00,SSE,167,7.0,14.0,64,0.00,,,0.00,87.000000,,2013-04-28 00:43:00,
2013-04-27 19:52:00,79.0,66.0,-100.00,SSE,167,7.0,14.0,64,0.00,,,0.00,87.000000,,2013-04-28 00:52:00,
2013-04-27 20:01:00,79.0,66.0,-100.00,SSE,167,7.0,14.0,64,0.00,,,0.00,87.000000,,2013-04-28 01:01:00,
2013-04-27 20:22:00,75.0,67.0,-100.00,South,184,6.0,14.0,75,0.00,,,0.00,14.000000,,2013-04-28 01:22:00,
2013-04-27 20:32:00,75.0,67.0,-100.00,South,184,6.0,14.0,75,0.00,,,0.00,14.000000,,2013-04-28 01:32:00,
2013-04-27 20:42:00,75.0,67.0,-100.00,South,184,6.0,14.0,75,0.00,,,0.00,14.000000,,2013-04-28 01:42:00,
2013-04-27 20:52:00,75.0,67.0,-100.00,South,184,6.0,14.0,75,0.00,,,0.00,14.000000,,2013-04-28 01:52:00,
2013-04-27 21:02:00,75.0,67.0,-100.00,South,184,6.0,14.0,75,0.00,,,0.00,14.000000,,2013-04-28 02:02:00,
2013-04-27 21:32:00,73.0,67.0,-100.00,SSW,199,6.0,13.0,81,0.01,,,0.01,0.000000,,2013-04-28 02:32:00,
2013-04-27 21:42:00,73.0,67.0,-100.00,SSW,199,6.0,13.0,81,0.01,,,0.01,0.000000,,2013-04-28 02:42:00,
2013-04-27 21:52:00,73.0,67.0,-100.00,SSW,199,6.0,13.0,81,0.01,,,0.01,0.000000,,2013-04-28 02:52:00,
2013-04-27 22:01:00,73.0,67.0,-100.00,SSW,199,6.0,13.0,81,0.01,,,0.01,0.000000,,2013-04-28 03:01:00,
2013-04-27 22:22:00,71.0,65.0,-100.00,SSE,163,4.0,10.0,80,0.00,,,0.01,0.000000,,2013-04-28 03:22:00,
2013-04-27 22:33:00,71.0,65.0,-100.00,SSE,163,4.0,10.0,80,0.00,,,0.01,0.000000,,2013-04-28 03:33:00,
2013-04-27 22:43:00,71.0,65.0,-100.00,SSE,163,4.0,10.0,80,0.00,,,0.01,0.000000,,2013-04-28 03:43:00,
2013-04-27 22:53:00,71.0,65.0,-100.00,SSE,163,4.0,10.0,80,0.00,,,0.01,0.000000,,2013-04-28 03:53:00,
2013-04-27 23:02:00,71.0,65.0,-100.00,SSE,163,4.0,10.0,80,0.00,,,0.01,0.000000,,2013-04-28 04:02:00,
2013-04-27 23:32:00,70.0,65.0,-100.00,WSW,257,2.0,7.0,85,0.00,,,0.01,0.000000,,2013-04-28 04:32:00,
2013-04-27 23:43:00,70.0,65.0,-100.00,WSW,257,2.0,7.0,85,0.00,,,0.01,0.000000,,2013-04-28 04:43:00,
2013-04-27 23:53:00,70.0,65.0,-100.00,WSW,257,2.0,7.0,85,0.00,,,0.01,0.000000,,2013-04-28 04:53:00,